Regional Weather Roundup
Issued by NWS Midland/Odessa, TX

Home | Current Version | Previous Version | Text Only | Print | Product List | Glossary On
Versions: 1 2 3 4 5 6 7 8 9 10 11 12 13 14 15 16 17 18 19 20 21 22 23 24 25 26 27 28 29 30 31 32 33 34 35 36 37 38 39 40 41 42 43 44 45 46 47 48 49 50
000
ASUS44 KMAF 251910
RWRMAF
MIDLAND AREA WEATHER ROUNDUP
NATIONAL WEATHER SERVICE MIDLAND TX
200 PM CDT SUN JUN 25 2017

...IN SOUTHWEST TEXAS AND SOUTHEAST NEW MEXICO...

CITY           SKY/WX    TMP DP  RH WIND       PRES   REMARKS
ALPINE         MOSUNNY   85  58  39 SE8       30.34F
ANDREWS          N/A     86  61  42 SE15G21   30.25F
ARTESIA        SUNNY     86  61  42 SE17G23   30.23F
BIG SPRING     PTSUNNY   84  62  47 SE8       30.26F
CARLSBAD       MOSUNNY   88  62  41 SE12G22   30.21F
DRYDEN           N/A     89  63  41 VRB7      30.17F
FORT STOCKTON  SUNNY     89  58  34 SE15      30.20F
GUAD PASS      MOSUNNY   81  60  48 E17G25    30.35F
HOBBS          PTSUNNY   81  63  54 SE9       30.29F
MARFA          MOSUNNY   82  59  45 SE13G20   30.31F
MIDLAND AIRPK  SUNNY     86  60  42 E8        30.25F
MIDLAND INTL   MOSUNNY   87  60  40 E10G20    30.23F
ODESSA         SUNNY     89  61  38 S10       30.24F
PECOS          SUNNY     92  58  31 E14       30.18F
PRESIDIO       FAIR      92  60  34 E7G20     30.18F
SEMINOLE       PTSUNNY   85  61  44 E10       30.27F
SNYDER         CLOUDY    81  65  58 E9        30.27S
WINK           MOSUNNY   90  59  35 MISG      30.19F
$$
...OTHER STATIONS IN TEXAS...

CITY           SKY/WX    TMP DP  RH WIND       PRES   REMARKS
ABILENE        CLOUDY    82  64  54 E12G18    30.24F
AMARILLO       SUNNY     77  60  55 S9        30.30F
AUSTIN         PTSUNNY   88  72  58 NE17G26   30.13F
BROWNSVILLE    LGT RAIN  78  75  90 W14       30.05F
CORPUS CHRISTI CLOUDY    92  74  55 N8        30.07F HX 101
DALLAS FTW     MOSUNNY   87  64  46 E10       30.19F
DEL RIO        MOSUNNY   88  68  51 SE5       30.12F
EL PASO        MOSUNNY   89  61  38 SE8G18    30.20F
HOUSTON INT    PTSUNNY   80  71  74 E7        30.13F
LUBBOCK        PTSUNNY   83  61  47 S14       30.27F
SAN ANGELO     MOSUNNY   86  63  45 E8        30.21F
SAN ANTONIO    LGT RAIN  77  71  82 SE6       30.15S
WACO           PTSUNNY   83  72  69 NE7       30.17F
WICHITA FALLS  NOT AVBL
$$
...OTHER LOCATIONS IN NEW MEXICO...

CITY           SKY/WX    TMP DP  RH WIND       PRES   REMARKS
ALAMOGORDO     SUNNY     90  54  29 SW7G20    30.21F
ALBUQUERQUE    PTSUNNY   84  50  30 SW14G20   30.26F
CANNON AFB     CLOUDY    71  69  93 S14       30.33F
CLOVIS         CLOUDY    76  64  66 SW15      30.32F
HOLLOMAN AFB   MOSUNNY   90  56  32 S8        30.21F
ROSWELL        PTSUNNY   86  60  41 S15G24    30.24F
RUIDOSO        MOSUNNY   77  57  50 SE16      30.43F
SANTA FE       MOSUNNY   81  53  37 VRB7      30.33F
TRUTH OR CONSE SUNNY     88  51  28 SE6       30.23F
TUCUMCARI      PTSUNNY   79  64  60 S16       30.26F
$$



USA.gov is the U.S. government's official web portal to all federal, state and local government web resources and services.